GW2737 Weather Reports


time (UTC)temp
F
wind
direction
speed
knots
gust
knots
rain 1hr
in
rain 24hr
in
rain mn
in
humidity
%
barometer
mb
20260509034543 55 132 0.0 1.7 0.00 0.00 0.00 72 1022.5
20260509034024 55 0 0.0 2.6 0.00 0.00 0.00 72 1022.4
20260509033524 55 0 0.0 2.6 0.00 0.00 0.00 72 1022.3
20260509033043 55 162 0.0 2.6 0.00 0.00 0.00 71 1022.3
20260509032523 56 154 0.9 4.3 0.00 0.00 0.00 71 1022.3
20260509032024 56 97 0.0 5.2 0.00 0.00 0.00 70 1022.3
20260509031543 56 153 0.0 5.2 0.00 0.00 0.00 69 1022.3
20260509031024 56 150 0.0 4.3 0.00 0.00 0.00 69 1022.3
20260509030524 57 0 0.0 4.3 0.00 0.00 0.00 68 1022.3
20260509030038 57 227 0.9 4.3 0.00 0.00 0.00 67 1022.2
20260509025524 58 216 0.9 6.1 0.00 0.00 0.00 66 1022.2
20260509025024 58 235 0.9 7.0 0.00 0.00 0.00 66 1022.1
20260509024538 58 0 1.7 7.0 0.00 0.00 0.00 66 1022.1
20260509024024 58 170 1.7 6.1 0.00 0.00 0.00 66 1022.1
20260509023525 58 270 1.7 6.1 0.00 0.00 0.00 65 1021.9
20260509023040 59 135 0.9 9.6 0.00 0.00 0.00 64 1021.9
20260509022524 59 153 2.6 9.6 0.00 0.00 0.00 64 1022.0
20260509022025 59 198 2.6 6.1 0.00 0.00 0.00 64 1021.9
20260509021545 59 128 1.7 5.2 0.00 0.00 0.00 64 1021.9
20260509021024 59 223 2.6 5.2 0.00 0.00 0.00 64 1021.9
20260509020524 58 172 0.9 5.2 0.00 0.00 0.00 65 1022.0
20260509020041 58 129 1.7 7.8 0.00 0.00 0.00 64 1021.9
20260509015524 58 90 1.7 7.8 0.00 0.00 0.00 63 1021.9
20260509015024 58 269 0.9 7.8 0.00 0.00 0.00 64 1022.0
20260509014545 58 168 0.9 7.8 0.00 0.00 0.00 64 1022.0
20260509014024 58 206 0.9 9.6 0.00 0.00 0.00 64 1021.9
20260509013524 58 95 3.5 13.0 0.00 0.00 0.00 63 1021.9
20260509013050 59 142 2.6 13.0 0.00 0.00 0.00 62 1022.0
20260509012524 59 137 3.5 10.4 0.00 0.00 0.00 61 1022.0
20260509012025 60 313 1.7 10.4 0.00 0.00 0.00 62 1021.9
20260509011543 59 276 0.9 10.4 0.00 0.00 0.00 62 1021.9
20260509011024 60 101 1.7 7.8 0.00 0.00 0.00 61 1021.9
20260509010524 60 131 1.7 7.8 0.00 0.00 0.00 61 1021.9
20260509010037 60 257 1.7 7.8 0.00 0.00 0.00 61 1022.0
20260509005525 60 107 2.6 7.8 0.00 0.00 0.00 60 1021.9
20260509005028 60 257 1.7 9.6 0.00 0.00 0.00 61 1021.8
20260509004543 60 168 2.6 9.6 0.00 0.00 0.00 60 1021.8
20260509004024 60 184 1.7 8.7 0.00 0.00 0.00 60 1021.9
20260509003524 60 223 3.5 8.7 0.00 0.00 0.00 59 1021.9
20260509003042 61 275 2.6 7.8 0.00 0.00 0.00 59 1021.9
20260509002524 60 242 2.6 8.7 0.00 0.00 0.00 60 1021.8
20260509002024 61 138 2.6 11.3 0.00 0.00 0.00 60 1021.9
20260509001541 60 115 5.2 11.3 0.00 0.00 0.00 60 1021.9
20260509001024 60 194 4.3 14.8 0.00 0.00 0.00 61 1021.8
20260509000524 61 160 5.2 14.8 0.00 0.00 0.00 58 1021.9
20260509000038 61 140 2.6 11.3 0.00 0.00 0.00 59 1021.9
20260508235524 60 168 4.3 11.3 0.00 0.00 0.00 58 1021.8
20260508235025 61 130 2.6 12.2 0.00 0.00 0.00 59 1021.8
20260508234538 60 209 4.3 12.2 0.00 0.00 0.00 60 1021.8
20260508234024 60 117 2.6 10.4 0.00 0.00 0.00 60 1021.8
20260508233525 60 229 3.5 10.4 0.00 0.00 0.00 61 1021.7
20260508233047 60 248 3.5 10.4 0.00 0.00 0.00 61 1021.7
20260508232524 60 245 3.5 12.2 0.00 0.00 0.00 62 1021.7
20260508232024 59 214 2.6 12.2 0.00 0.00 0.00 62 1021.7
20260508231546 59 171 3.5 12.2 0.00 0.00 0.00 62 1021.7
20260508231025 59 119 3.5 11.3 0.00 0.00 0.00 62 1021.8
20260508230524 59 155 4.3 13.0 0.00 0.00 0.00 61 1021.7
20260508230053 59 137 4.3 13.0 0.00 0.00 0.00 61 1021.7
20260508225524 59 117 7.0 12.2 0.00 0.00 0.00 60 1021.7
20260508225023 60 138 4.3 12.2 0.00 0.00 0.00 59 1021.6
20260508224542 60 136 1.7 13.9 0.00 0.00 0.00 61 1021.7
20260508224024 59 161 5.2 14.8 0.00 0.00 0.00 60 1021.7
20260508223524 60 111 6.1 14.8 0.00 0.00 0.00 60 1021.6
20260508223038 61 89 4.3 12.2 0.00 0.00 0.00 58 1021.7
20260508222524 61 34 5.2 12.2 0.00 0.00 0.00 57 1021.7
20260508222025 61 269 3.5 12.2 0.00 0.00 0.00 58 1021.5
20260508221537 62 111 4.3 11.3 0.00 0.00 0.00 57 1021.5
20260508221027 62 135 1.7 11.3 0.00 0.00 0.00 60 1021.4
20260508220525 61 246 4.3 11.3 0.00 0.00 0.00 60 1021.5
20260508220038 61 97 4.3 11.3 0.00 0.00 0.00 60 1021.6
20260508215524 61 267 3.5 11.3 0.00 0.00 0.00 60 1021.6
20260508215024 61 234 4.3 10.4 0.00 0.00 0.00 59 1021.5
20260508214545 61 225 5.2 10.4 0.00 0.00 0.00 58 1021.5
20260508214025 62 171 4.3 11.3 0.00 0.00 0.00 57 1021.5
20260508213524 62 226 3.5 11.3 0.00 0.00 0.00 60 1021.5
20260508213042 61 242 2.6 12.2 0.00 0.00 0.00 60 1021.5
20260508212524 61 148 4.3 12.2 0.00 0.00 0.00 60 1021.4
20260508212025 61 174 3.5 9.6 0.00 0.00 0.00 60 1021.4
20260508211542 61 258 3.5 10.4 0.00 0.00 0.00 60 1021.4
20260508211028 60 163 3.5 13.0 0.00 0.00 0.00 60 1021.1
20260508210524 60 242 3.5 13.0 0.00 0.00 0.00 62 1021.1
20260508210041 59 181 4.3 13.0 0.00 0.00 0.00 61 1021.1
20260508205524 60 123 3.5 13.9 0.00 0.00 0.00 62 1021.3
20260508205027 59 265 4.3 13.9 0.00 0.00 0.00 63 1021.1
20260508204545 59 161 2.6 12.2 0.00 0.00 0.00 62 1021.1
20260508204024 60 194 4.3 15.6 0.00 0.00 0.00 62 1021.1
20260508203524 60 252 4.3 15.6 0.00 0.00 0.00 62 1021.0
20260508203051 60 230 5.2 15.6 0.00 0.00 0.00 62 1020.9
20260508202525 60 173 3.5 11.3 0.00 0.00 0.00 63 1020.9
20260508202024 60 140 2.6 13.0 0.00 0.00 0.00 63 1020.8
20260508201541 59 59 4.3 13.0 0.00 0.00 0.00 63 1020.8
20260508201024 59 222 3.5 10.4 0.00 0.00 0.00 63 1020.7
20260508200524 59 251 2.6 8.7 0.00 0.00 0.00 65 1020.7
20260508200050 58 173 2.6 13.0 0.00 0.00 0.00 68 1020.7
20260508195528 57 233 3.5 13.0 0.00 0.00 0.00 68 1020.7
20260508195027 57 251 4.3 13.0 0.00 0.00 0.00 69 1020.7
20260508194540 56 97 4.3 10.4 0.00 0.00 0.00 70 1020.7
20260508194025 56 170 3.5 12.2 0.00 0.00 0.00 71 1020.7
20260508193524 56 269 3.5 12.2 0.00 0.00 0.00 72 1020.6
20260508193037 55 136 6.1 10.4 0.00 0.00 0.00 72 1020.7
20260508192524 56 164 3.5 11.3 0.00 0.00 0.00 72 1020.6
20260508192025 56 156 3.5 11.3 0.00 0.00 0.00 72 1020.5
20260508191546 56 165 2.6 10.4 0.00 0.00 0.00 73 1020.5
20260508191025 55 126 3.5 10.4 0.00 0.00 0.00 74 1020.5
20260508190526 55 184 2.6 11.3 0.00 0.00 0.00 73 1020.5
20260508190038 55 190 1.7 11.3 0.00 0.00 0.00 74 1020.5
20260508185524 55 129 5.2 11.3 0.00 0.00 0.00 73 1020.5
20260508185024 55 121 3.5 11.3 0.00 0.00 0.00 73 1020.5
20260508184540 56 107 2.6 10.4 0.00 0.00 0.00 73 1020.4
20260508184025 56 81 4.3 11.3 0.00 0.00 0.00 73 1020.2
20260508183527 56 148 2.6 11.3 0.00 0.00 0.00 72 1020.2
20260508183042 56 30 2.6 8.7 0.00 0.00 0.00 73 1020.0
20260508182524 56 284 2.6 9.6 0.00 0.00 0.00 74 1020.0
20260508182024 56 169 3.5 9.6 0.00 0.00 0.00 74 1019.9
20260508181540 56 199 3.5 9.6 0.00 0.00 0.00 73 1019.8
20260508181024 56 115 2.6 10.4 0.00 0.00 0.00 73 1019.9
20260508180526 56 175 3.5 12.2 0.00 0.00 0.00 73 1019.9
20260508180039 57 298 3.5 12.2 0.00 0.00 0.00 72 1019.9
20260508175525 57 105 5.2 12.2 0.00 0.00 0.00 71 1019.7
20260508175025 58 72 3.5 13.0 0.00 0.00 0.00 71 1019.7
20260508174546 58 111 4.3 13.0 0.00 0.00 0.00 70 1019.6
20260508174024 58 112 4.3 13.9 0.00 0.00 0.00 70 1019.5
20260508173525 58 240 3.5 13.9 0.00 0.00 0.00 71 1019.4
20260508173036 58 129 2.6 11.3 0.00 0.00 0.00 71 1019.2
20260508172527 58 300 3.5 11.3 0.00 0.00 0.00 71 1019.2
20260508172025 58 212 3.5 10.4 0.00 0.00 0.00 72 1019.0
20260508171541 57 173 2.6 12.2 0.00 0.00 0.00 73 1018.9
20260508171026 57 229 5.2 12.2 0.00 0.00 0.00 73 1018.9
20260508170526 57 345 3.5 12.2 0.00 0.00 0.00 73 1018.8
20260508170045 57 175 4.3 9.6 0.00 0.00 0.00 74 1018.8
20260508165524 57 175 3.5 8.7 0.00 0.00 0.00 74 1018.8
20260508165026 57 132 3.5 7.8 0.00 0.00 0.00 75 1018.9
20260508164543 57 163 2.6 10.4 0.00 0.00 0.00 75 1018.9
20260508164025 56 130 2.6 10.4 0.00 0.00 0.00 75 1018.8
20260508163524 57 166 3.5 9.6 0.00 0.00 0.00 75 1018.7
20260508163037 56 265 2.6 10.4 0.00 0.00 0.00 75 1018.7
20260508162525 56 304 3.5 10.4 0.00 0.00 0.00 75 1018.7
20260508162024 56 336 1.7 11.3 0.00 0.00 0.00 76 1018.6
20260508161544 56 148 2.6 11.3 0.00 0.00 0.00 76 1018.6
20260508161025 56 250 3.5 11.3 0.00 0.00 0.00 76 1018.6
20260508160524 56 164 3.5 10.4 0.00 0.00 0.00 77 1018.5
20260508160048 55 101 3.5 9.6 0.00 0.00 0.00 77 1018.5
20260508155524 55 258 3.5 9.6 0.00 0.00 0.00 77 1018.4
20260508155025 55 153 4.3 9.6 0.00 0.00 0.00 77 1018.3
20260508154548 55 135 1.7 7.8 0.00 0.00 0.00 77 1018.1
20260508154026 55 153 1.7 9.6 0.00 0.00 0.00 78 1018.3
20260508153525 55 203 3.5 9.6 0.00 0.00 0.00 78 1018.4
20260508153039 55 172 3.5 8.7 0.00 0.00 0.00 78 1018.5
20260508152524 55 205 2.6 7.8 0.00 0.00 0.00 80 1018.5
20260508152025 55 134 0.9 6.1 0.00 0.00 0.00 82 1018.5
20260508151537 54 143 2.6 6.1 0.00 0.00 0.00 82 1018.3
20260508151028 54 134 1.7 4.3 0.00 0.00 0.00 83 1018.3
20260508150525 54 0 0.0 3.5 0.00 0.00 0.00 84 1018.1
20260508150037 54 261 0.0 3.5 0.00 0.00 0.00 84 1018.0
20260508145525 54 165 0.0 5.2 0.00 0.00 0.00 84 1017.9
20260508145025 53 171 0.9 5.2 0.00 0.00 0.00 85 1017.9
20260508144548 53 166 0.9 4.3 0.00 0.00 0.00 85 1017.8
20260508144024 53 163 0.9 4.3 0.00 0.00 0.00 86 1017.7
20260508143525 53 134 1.7 4.3 0.00 0.00 0.00 86 1017.7
20260508143050 52 230 0.0 3.5 0.00 0.00 0.00 87 1017.6
20260508142528 52 240 0.9 3.5 0.00 0.00 0.00 88 1017.6
20260508142027 52 0 0.9 3.5 0.00 0.00 0.00 88 1017.4
20260508141540 52 249 0.9 3.5 0.00 0.00 0.00 88 1017.4
20260508141024 52 242 1.7 3.5 0.00 0.00 0.00 89 1017.4
20260508140526 52 259 0.9 3.5 0.00 0.00 0.00 89 1017.4
20260508140040 51 246 0.9 3.5 0.00 0.00 0.00 89 1017.4
20260508135524 51 275 0.9 3.5 0.00 0.00 0.00 89 1017.1
20260508135025 51 242 0.0 3.5 0.00 0.00 0.00 90 1017.1
20260508134541 51 177 0.0 3.5 0.00 0.00 0.00 90 1017.1
20260508134025 51 0 0.0 3.5 0.00 0.00 0.00 90 1017.0
20260508133525 51 232 0.9 3.5 0.00 0.00 0.00 90 1017.0
20260508133042 51 209 0.0 1.7 0.00 0.00 0.00 90 1017.1
20260508132527 51 249 0.0 3.5 0.00 0.00 0.00 90 1017.0
20260508132024 51 229 0.0 3.5 0.00 0.00 0.00 90 1017.0
20260508131547 51 244 0.9 3.5 0.00 0.00 0.00 90 1016.8
20260508131024 51 202 0.0 3.5 0.00 0.00 0.00 90 1016.8
20260508130526 51 0 0.0 0.9 0.00 0.00 0.00 90 1016.6
20260508130057 51 0 0.0 0.9 0.00 0.00 0.00 90 1016.6
20260508125528 51 0 0.0 0.9 0.00 0.00 0.00 90 1016.6
20260508125025 51 0 0.0 0.9 0.00 0.00 0.00 90 1016.7
20260508124547 51 0 0.0 0.9 0.00 0.00 0.00 90 1016.7
20260508124025 50 0 0.0 0.9 0.00 0.00 0.00 90 1016.7
20260508123525 50 0 0.0 0.9 0.00 0.00 0.00 90 1016.7
20260508123050 50 302 0.0 0.0 0.00 0.00 0.00 90 1016.6
20260508122524 50 303 0.0 0.0 0.00 0.00 0.00 90 1016.6
20260508122024 50 0 0.0 0.0 0.00 0.00 0.00 90 1016.6
20260508121545 50 0 0.0 0.0 0.00 0.00 0.00 90 1016.6
20260508121024 50 0 0.0 0.0 0.00 0.00 0.00 90 1016.6
20260508120524 50 0 0.0 0.0 0.00 0.00 0.00 91 1016.6
20260508120047 50 0 0.0 0.0 0.00 0.00 0.00 90 1016.6
20260508115524 50 0 0.0 0.0 0.00 0.00 0.00 90 1016.6
20260508115025 50 0 0.0 0.9 0.00 0.00 0.00 90 1016.5
20260508114547 50 0 0.0 0.9 0.00 0.00 0.00 91 1016.6
20260508114025 50 305 0.0 0.0 0.00 0.00 0.00 91 1016.6
20260508113524 51 0 0.0 0.0 0.00 0.00 0.00 90 1016.4
20260508113038 51 0 0.0 0.0 0.00 0.00 0.00 90 1016.5
20260508112525 51 0 0.0 0.0 0.00 0.00 0.00 90 1016.6
20260508112025 51 0 0.0 0.0 0.00 0.00 0.00 90 1016.6
20260508111549 51 0 0.0 0.0 0.00 0.00 0.00 90 1016.5
20260508111024 51 0 0.0 0.0 0.00 0.00 0.00 90 1016.5
20260508110524 51 0 0.0 0.0 0.00 0.00 0.00 89 1016.6
20260508110040 51 0 0.0 0.0 0.00 0.00 0.00 89 1016.6
20260508105525 51 0 0.0 0.0 0.00 0.00 0.00 89 1016.6
20260508105024 51 0 0.0 0.0 0.00 0.00 0.00 89 1016.6
20260508104547 51 0 0.0 0.0 0.00 0.00 0.00 89 1016.6
20260508104025 51 0 0.0 0.0 0.00 0.00 0.00 88 1016.6
20260508103524 51 0 0.0 0.0 0.00 0.00 0.00 88 1016.6
20260508103044 51 0 0.0 0.0 0.00 0.00 0.00 88 1016.6
20260508102525 52 0 0.0 0.0 0.00 0.00 0.00 87 1016.5
20260508102026 52 0 0.0 0.0 0.00 0.00 0.00 87 1016.5
20260508101544 52 0 0.0 0.0 0.00 0.00 0.00 87 1016.5
20260508101025 52 0 0.0 0.0 0.00 0.00 0.00 87 1016.5
20260508100524 52 0 0.0 0.0 0.00 0.00 0.00 87 1016.5
20260508100037 52 0 0.0 0.0 0.00 0.00 0.00 87 1016.5
20260508095525 52 0 0.0 0.0 0.00 0.00 0.00 86 1016.5
20260508095027 52 0 0.0 0.9 0.00 0.00 0.00 86 1016.4
20260508094545 52 0 0.0 0.9 0.00 0.00 0.00 86 1016.4
20260508094024 52 305 0.0 0.9 0.00 0.00 0.00 86 1016.4
20260508093525 52 0 0.0 0.0 0.00 0.00 0.00 86 1016.3
20260508093052 52 0 0.0 0.0 0.00 0.00 0.00 85 1016.2
20260508092524 53 0 0.0 0.0 0.00 0.00 0.00 85 1016.3
20260508092024 53 0 0.0 0.0 0.00 0.00 0.00 85 1016.3
20260508091553 52 0 0.0 0.0 0.00 0.00 0.00 85 1016.4
20260508091024 53 0 0.0 0.0 0.00 0.00 0.00 85 1016.4
20260508090525 53 0 0.0 0.0 0.00 0.00 0.00 84 1016.4
20260508090052 53 0 0.0 0.0 0.00 0.00 0.00 84 1016.5
20260508085524 53 0 0.0 0.0 0.00 0.00 0.00 83 1016.5
20260508085028 53 0 0.0 0.0 0.00 0.00 0.00 83 1016.5
20260508084539 53 0 0.0 0.0 0.00 0.00 0.00 83 1016.6
20260508084025 54 0 0.0 0.0 0.00 0.00 0.00 82 1016.6
20260508083524 54 0 0.0 0.0 0.00 0.00 0.00 82 1016.5
20260508083045 54 313 0.0 0.0 0.00 0.00 0.00 82 1016.6
20260508082527 54 0 0.0 0.0 0.00 0.00 0.00 82 1016.5
20260508082024 54 0 0.0 0.0 0.00 0.00 0.00 82 1016.6
20260508081549 54 0 0.0 0.0 0.00 0.00 0.00 82 1016.6
20260508081025 54 0 0.0 0.0 0.00 0.00 0.00 82 1016.8
20260508080524 54 0 0.0 0.0 0.00 0.00 0.00 82 1016.8
20260508080043 54 313 0.0 1.7 0.00 0.00 0.00 82 1016.7
20260508075524 55 0 0.0 1.7 0.00 0.00 0.00 81 1016.9
20260508075024 55 311 0.0 1.7 0.00 0.00 0.00 80 1016.8
20260508074539 55 0 0.0 1.7 0.00 0.00 0.00 79 1016.8
20260508074025 55 263 0.9 1.7 0.00 0.00 0.00 79 1016.8
20260508073528 55 0 0.0 1.7 0.00 0.00 0.00 80 1016.9
20260508073045 55 239 0.0 1.7 0.00 0.00 0.00 80 1016.8
20260508072524 55 242 0.0 1.7 0.00 0.00 0.00 79 1016.8
20260508072024 55 236 0.9 1.7 0.00 0.00 0.00 80 1016.8
20260508071551 55 0 0.9 2.6 0.00 0.00 0.00 79 1017.0
20260508071024 55 257 0.9 2.6 0.00 0.00 0.00 79 1017.0
20260508070527 55 263 0.9 1.7 0.00 0.00 0.00 79 1016.9
20260508070053 55 0 0.0 1.7 0.00 0.00 0.00 78 1016.9
20260508065527 55 0 0.0 0.9 0.00 0.00 0.00 79 1016.9
20260508065024 55 234 0.0 1.7 0.00 0.00 0.00 78 1017.0
20260508064543 55 240 0.0 1.7 0.00 0.00 0.00 78 1017.0
20260508064025 55 275 0.0 1.7 0.00 0.00 0.00 78 1017.0
20260508063525 55 0 0.0 1.7 0.00 0.00 0.00 78 1017.0
20260508063043 55 0 0.0 1.7 0.00 0.00 0.00 78 1016.9
20260508062524 55 258 0.0 1.7 0.00 0.00 0.00 78 1016.9
20260508062024 55 238 0.0 1.7 0.00 0.00 0.00 78 1016.9
20260508061538 55 0 0.0 1.7 0.00 0.00 0.00 78 1017.0
20260508061025 55 0 0.9 1.7 0.00 0.00 0.00 77 1016.9
20260508060525 55 237 0.0 1.7 0.00 0.00 0.00 77 1016.8
20260508060044 55 232 0.9 2.6 0.00 0.00 0.00 77 1016.9
20260508055525 55 0 0.9 2.6 0.00 0.00 0.00 77 1016.9
20260508055025 55 240 0.0 1.7 0.00 0.00 0.00 77 1017.0
20260508054548 55 246 0.0 1.7 0.00 0.00 0.00 76 1016.8
20260508054025 55 0 0.0 1.7 0.00 0.00 0.00 77 1017.0
20260508053530 55 0 0.0 0.9 0.00 0.00 0.00 76 1017.0
20260508053041 55 0 0.0 0.9 0.00 0.00 0.00 76 1016.8
20260508052525 56 0 0.0 0.9 0.00 0.00 0.00 76 1016.9
20260508052024 56 0 0.0 2.6 0.00 0.00 0.00 75 1016.9
20260508051542 56 241 0.0 2.6 0.00 0.00 0.00 75 1016.9
20260508051033 56 242 0.9 2.6 0.00 0.00 0.00 75 1016.9
20260508050527 56 242 0.9 2.6 0.00 0.00 0.00 75 1017.0
20260508050038 56 0 0.9 2.6 0.00 0.00 0.00 75 1017.0
20260508045524 56 0 0.0 1.7 0.00 0.00 0.00 74 1017.0
20260508045024 56 250 0.0 1.7 0.00 0.00 0.00 74 1017.1
20260508044546 56 234 0.0 3.5 0.00 0.00 0.00 74 1017.1
20260508044025 56 0 0.0 3.5 0.00 0.00 0.00 74 1017.0
20260508043524 57 254 0.9 3.5 0.00 0.00 0.00 73 1017.1
20260508043044 57 232 1.7 3.5 0.00 0.00 0.00 73 1017.1
20260508042524 57 252 0.0 1.7 0.00 0.00 0.00 73 1017.2
20260508042025 57 0 0.0 3.5 0.00 0.00 0.00 73 1017.1
20260508041540 57 274 0.0 3.5 0.00 0.00 0.00 73 1017.0
20260508041025 57 246 0.9 5.2 0.00 0.00 0.00 72 1017.0
20260508040524 58 235 0.9 5.2 0.00 0.00 0.00 72 1017.1
20260508040038 58 246 0.9 2.6 0.00 0.00 0.00 72 1017.1
20260508035524 58 250 0.9 2.6 0.00 0.00 0.00 72 1017.1
20260508035025 58 233 0.9 3.5 0.00 0.00 0.00 72 1017.0